Weather History for CWPA - September, 2013

Change the Weather History Date:

Tuesday, September 24, 2013

  Actual Average Record
Temperature  
Mean Temperature 32 °F -  
Max Temperature 48 °F - - ()
Min Temperature 16 °F - - ()
Degree Days  
Heating Degree Days 33    
Moisture  
Dew Point 22 °F    
Average Humidity 70    
Maximum Humidity 99    
Minimum Humidity 26    
Precipitation  
Precipitation 0.00 in - - ()
Sea Level Pressure  
Sea Level Pressure 29.82 in    
Wind  
Wind Speed - ()    
Max Wind Speed -    
Max Gust Speed -    
T = Trace of Precipitation, MM = Missing Value Source: Averaged Metar Reports

Daily Weather History Graph

Daily Weather History Graph

Search for Another Location

Airport or City:

Trip Planner

Search our weather history database for the weather conditions in past years. The results will help you decide how hot, cold, wet, or windy it might be!

Date:

Astronomy

Sep. 24, 2013 Rise Set
Actual Time 7:43 AM MDT 7:46 PM MDT
Civil Twilight 7:08 AM MDT 8:21 PM MDT
Nautical Twilight 6:27 AM MDT 9:02 PM MDT
Astronomical Twilight 5:43 AM MDT 9:46 PM MDT
Moon 10:21 PM MDT (9/24) 1:48 PM MDT (9/24)
Length of Visible Light 13h 12m
Length of Day
12h 02m
Waning Gibbous, 72% of the Moon is Illuminated
Sep 24
Waning Gibbous
Sep 26
Last Quarter
Oct 4
New
Oct 11
First Quarter
Oct 18
Full

Hourly Weather History & Observations

Time (MDT) Temp. Dew Point Humidity Pressure Visibility Wind Dir Wind Speed Gust Speed Precip Events Conditions
12:00 AM 27 °F 25 °F 88% 29.73 in - Calm Calm - -  
12:00 AM 26.6 °F 25.0 °F 94% 29.73 in - North - - N/A   Unknown
1:00 AM 27.5 °F 25.5 °F 92% 29.75 in - North - - N/A   Unknown
2:00 AM 25.0 °F 23.9 °F 96% 29.75 in - North - - N/A   Unknown
3:00 AM 24.1 °F 23.0 °F 96% 29.76 in - North - - N/A   Unknown
4:00 AM 23.9 °F 23.0 °F 96% 29.76 in - North - - N/A   Unknown
5:00 AM 21.6 °F 21.2 °F 99% 29.79 in - North - - N/A   Unknown
6:00 AM 18 °F 17 °F 92% 29.83 in - Calm Calm - -  
6:00 AM 17.8 °F 16.7 °F 96% 29.83 in - North - - N/A   Unknown
7:00 AM 17.4 °F 16.7 °F 97% 29.83 in - North - - N/A   Unknown
8:00 AM 17.6 °F 17.1 °F 98% 29.83 in - North - - N/A   Unknown
9:00 AM 23.9 °F 22.8 °F 96% 29.83 in - North - - N/A   Unknown
10:00 AM 35.2 °F 27.3 °F 73% 29.78 in - North - - N/A   Unknown
11:00 AM 44.2 °F 23.4 °F 44% 29.78 in - North - - N/A   Unknown
12:00 PM 44 °F 20 °F 26% 29.79 in - Calm Calm - -  
12:00 PM 44.1 °F 20.5 °F 39% 29.79 in - North - - N/A   Unknown
1:00 PM 47.1 °F 20.1 °F 34% 29.78 in - North - - N/A   Unknown
2:00 PM 47.3 °F 22.6 °F 38% 29.80 in - North - - N/A   Unknown
3:00 PM 46.9 °F 20.1 °F 35% 29.81 in - North - - N/A   Unknown
4:00 PM 47.5 °F 21.0 °F 35% 29.81 in - North - - N/A   Unknown
5:00 PM 47.3 °F 21.2 °F 36% 29.83 in - North - - N/A   Unknown
6:00 PM 41 °F 21 °F 32% 29.87 in - Calm Calm - -  
6:00 PM 41.2 °F 21.2 °F 45% 29.87 in - North - - N/A   Unknown
7:00 PM 38.5 °F 23.7 °F 55% 29.89 in - North - - N/A   Unknown
8:00 PM 30.0 °F 23.7 °F 77% 29.93 in - North - - N/A   Unknown
9:00 PM 27.0 °F 21.7 °F 81% 29.95 in - North - - N/A   Unknown
10:00 PM 24.8 °F 20.5 °F 84% 29.93 in - North - - N/A   Unknown
11:00 PM 21.4 °F 19.0 °F 91% 29.94 in - North - - N/A   Unknown